Regional Weather Roundup
Issued by NWS

Home | Current Version | Previous Version | Graphics & Text | Print | Product List | Glossary On
Versions: 1 2 3 4 5 6 7 8 9 10 11 12 13 14 15 16 17 18 19 20 21 22 23 24 25 26 27 28 29 30 31 32 33 34 35 36 37 38 39 40 41 42 43 44 45 46 47 48 49 50
427
ASUS45 KSLC 211710
RWRUT

UTAH REGIONAL WEATHER ROUNDUP
NATIONAL WEATHER SERVICE SALT LAKE CITY UT
1000 AM MST TUE NOV 21 2017

UTZ001>011-023>025-211800-

NORTHERN UTAH

CITY           SKY/WX    TMP DP  RH WIND       PRES   REMARKS
BRIGHAM CITY   CLOUDY    46  37  71 CALM      30.35S
DUGWAY         PTSUNNY   45  32  58 W2        30.35R
HILL AFB       MOSUNNY   45  34  66 S7        30.34R
LOGAN          CLOUDY    45  40  82 S3        30.34R
OGDEN          SUNNY     49  37  63 W3        30.34R
SALT LAKE CITY MOSUNNY   47  40  76 SE6       30.35R
TOOELE VALLEY  MOSUNNY   45  36  70 CALM      30.36R
WENDOVER       CLOUDY    45  30  55 VRB3      30.36R
HEBER CITY     PTSUNNY   43  36  75 CALM      30.35R
WEST JORDAN    CLOUDY    45  37  74 CALM      30.37R

$$

UTZ011>015-024>027-211800-

CENTRAL/NORTHEAST UTAH

CITY           SKY/WX    TMP DP  RH WIND       PRES   REMARKS
PROVO AIRPORT  CLOUDY    47  33  58 CALM      30.37R
MOAB/CANYONLAN MOSUNNY   44  17  33 CALM      30.35S
DELTA          SUNNY     46  21  36 CALM      30.37R
PRICE          CLOUDY    37  17  44 CALM      30.38R
ROOSEVELT      CLOUDY    41  16  36 CALM      30.34R
VERNAL         CLOUDY    48  17  29 CALM      30.33R

$$

UTZ013>016-019>022-027-211800-

SOUTHERN UTAH

CITY           SKY/WX    TMP DP  RH WIND       PRES   REMARKS
BRYCE CANYON   SUNNY     50  19  29 N3        30.42R
CEDAR CITY     MOSUNNY   48  23  37 CALM      30.35R
MILFORD        SUNNY     43  16  33 S5        30.35R
ST GEORGE      MOSUNNY   46  11  24 SW5       30.33R
HANKSVILLE     MOSUNNY   37  10  32 CALM      30.41R
BLANDING         N/A     53  13  20 CALM      30.40R

$$

REGIONAL REPORTS     COLORADO/ARIZONA

CITY           SKY/WX    TMP DP  RH WIND       PRES   REMARKS
CRAIG, CO      CLOUDY    39  32  76 CALM      30.34R
GRAND JUNCTION CLOUDY    42  26  53 W7        30.38R
RIFLE, CO      CLOUDY    40  29  64 SE5       30.39R
MONTROSE, CO   CLOUDY    40  20  44 W6        30.39R
CORTEZ, CO     CLOUDY    50  17  27 W3        30.31S
COLORADO CITY    N/A     52  10  19 CALM      30.36R
PAGE, AZ       MOSUNNY   48  14  25 CALM      30.33R
GRAND CANYON   SUNNY     58  21  24 CALM      30.36R
KINGMAN, AZ    SUNNY     59  16  18 E8        30.27S
FLAGSTAFF, AZ  SUNNY     56  20  24 E8        30.35S

$$

REGIONAL REPORTS    NEVADA/IDAHO/WYOMING

CITY           SKY/WX    TMP DP  RH WIND       PRES   REMARKS
LAS VEGAS, NV  PTSUNNY   60  11  14 SW3       30.25S
ELY, NY        CLOUDY    52  36  54 NW6       30.41R
ELKO, NV       CLOUDY    50  44  80 SW5       30.36R
POCATELLO, ID  CLOUDY    41  37  86 CALM      30.34R
BURLEY, ID     MOSUNNY   54  46  74 SW8       30.29R
FORT BRIDGER,  CLOUDY    43  39  86 W13       30.38R
EVANSTON, WY   CLOUDY    44  37  76 W16       30.37R
ROCK SPRINGS,  CLOUDY    41  34  76 W20       30.31R
KEMMERER, WY   CLOUDY    37  34  87 W3        30.35R

$$




USA.gov is the U.S. government's official web portal to all federal, state and local government web resources and services.